TimeCDT,TemperatureF,Dew PointF,Humidity,Sea Level PressureIn,VisibilityMPH,Wind Direction,Wind SpeedMPH,Gust SpeedMPH,PrecipitationIn,Events,Conditions,WindDirDegrees,DateUTC
12:53 AM,51.1,33.1,50,29.88,10.0,SSW,20.7,-,N/A,,Clear,200,2012-10-09 05:53:00
1:53 AM,51.1,33.1,50,29.88,10.0,SSW,18.4,-,N/A,,Mostly Cloudy,210,2012-10-09 06:53:00
2:53 AM,51.8,33.8,50,29.86,10.0,SSW,16.1,24.2,N/A,,Clear,210,2012-10-09 07:53:00
3:53 AM,50.0,34.0,54,29.86,10.0,SSW,17.3,-,N/A,,Clear,210,2012-10-09 08:53:00
4:53 AM,48.9,34.0,56,29.85,10.0,SSW,15.0,21.9,N/A,,Mostly Cloudy,210,2012-10-09 09:53:00
5:53 AM,48.9,34.0,56,29.85,10.0,SSW,15.0,-,N/A,,Overcast,210,2012-10-09 10:53:00
6:53 AM,48.9,35.1,59,29.84,10.0,SSW,16.1,-,N/A,,Overcast,210,2012-10-09 11:53:00
7:53 AM,48.0,36.0,63,29.85,10.0,SSW,15.0,-,N/A,,Overcast,210,2012-10-09 12:53:00
8:53 AM,48.9,36.0,61,29.84,10.0,SSW,13.8,-,N/A,,Partly Cloudy,200,2012-10-09 13:53:00
9:53 AM,51.1,37.0,59,29.84,10.0,SW,16.1,-,N/A,,Scattered Clouds,220,2012-10-09 14:53:00
10:53 AM,53.1,37.0,55,29.85,10.0,WSW,17.3,24.2,N/A,,Partly Cloudy,240,2012-10-09 15:53:00
11:53 AM,55.9,37.9,51,29.83,10.0,WSW,12.7,-,N/A,,Partly Cloudy,240,2012-10-09 16:53:00
12:53 PM,60.1,39.0,46,29.81,10.0,SW,13.8,-,N/A,,Clear,230,2012-10-09 17:53:00
1:53 PM,59.0,39.9,49,29.82,10.0,WSW,13.8,-,N/A,,Overcast,250,2012-10-09 18:53:00
2:27 PM,55.4,39.2,54,29.82,10.0,NW,15.0,23.0,N/A,,Overcast,310,2012-10-09 19:27:00
2:53 PM,54.0,42.1,64,29.84,10.0,NW,17.3,24.2,N/A,,Overcast,310,2012-10-09 19:53:00
3:32 PM,48.2,39.2,71,29.86,10.0,WNW,21.9,29.9,N/A,,Overcast,300,2012-10-09 20:32:00
3:53 PM,46.0,39.0,76,29.90,10.0,NW,21.9,-,N/A,,Overcast,310,2012-10-09 20:53:00
4:53 PM,44.1,41.0,89,29.91,4.0,NNW,12.7,-,0.04,Rain,Rain,330,2012-10-09 21:53:00
5:00 PM,42.8,41.0,93,29.89,5.0,NNW,13.8,-,0.01,Rain,Light Rain,330,2012-10-09 22:00:00
5:17 PM,42.8,41.0,93,29.90,5.0,WNW,13.8,21.9,0.03,Rain,Light Rain,300,2012-10-09 22:17:00
5:20 PM,42.8,39.2,87,29.90,5.0,NW,12.7,21.9,0.03,Rain,Light Rain,310,2012-10-09 22:20:00
5:53 PM,42.1,37.9,85,29.91,10.0,West,6.9,-,0.05,Rain,Light Rain,280,2012-10-09 22:53:00
6:53 PM,42.1,39.0,89,29.91,10.0,West,10.4,-,0.00,,Overcast,270,2012-10-09 23:53:00
7:53 PM,42.1,39.0,89,29.92,10.0,West,11.5,-,N/A,,Partly Cloudy,260,2012-10-10 00:53:00
8:53 PM,42.1,39.9,92,29.94,10.0,West,9.2,-,N/A,,Scattered Clouds,270,2012-10-10 01:53:00
9:53 PM,41.0,39.0,93,29.95,10.0,West,9.2,-,N/A,,Clear,270,2012-10-10 02:53:00
10:53 PM,39.9,35.1,83,29.97,10.0,WNW,10.4,-,N/A,,Partly Cloudy,300,2012-10-10 03:53:00
11:53 PM,39.0,30.9,73,29.98,10.0,NW,15.0,-,N/A,,Clear,310,2012-10-10 04:53:00